Temperature
19 19 20 20 17 15 17 18 20 21 23 24 25 24 22 22 23 22 21 20 19 18 17 16 15 15 14 14 13 13 13 13 11 11 11 11 11 11 10 10 10 10 10 11 11 11 11 11 11
19 19 20 19 15 16 17 18 20 21 24 25 25 24 22 21 22 22 21 20 18 17 17 16 15 15 14 14 13 13 13 12 11 11 11 11 11 11 11 11 11 10 11 12 12 11 11 11 11
19 19 19 15 15 16 18 21 22 23 24 24 24 23 23 22 22 22 21 20 19 18 17 16 15 15 14 14 13 13 13 12 11 11 11 11 11 11 11 12 12 12 13 13 13 12 11 11 11
19 19 18 15 17 17 18 19 21 23 24 25 24 22 22 22 22 22 21 21 19 18 17 16 15 15 14 14 13 13 13 12 11 11 11 11 11 11 12 13 13 13 13 13 13 13 12 12 13
19 18 15 15 17 17 18 20 22 22 23 24 24 21 22 22 22 21 21 21 19 18 17 16 15 15 15 14 14 13 13 13 11 11 11 11 11 12 13 13 13 13 13 13 13 13 14 14 14
18 15 14 15 16 17 18 22 23 23 23 24 23 21 22 22 22 21 21 20 19 18 17 16 15 15 15 14 14 14 14 14 12 11 12 13 13 13 13 13 13 13 13 13 13 14 14 14 14
17 13 14 16 16 17 20 21 21 22 23 24 24 20 20 22 22 21 20 19 18 18 17 16 15 15 15 15 15 15 15 15 13 13 14 14 14 14 14 13 13 12 12 13 13 13 13 14 14
18 14 16 15 16 18 20 21 22 22 23 24 24 21 22 23 22 21 19 18 18 18 17 17 16 16 16 16 16 16 16 15 14 15 15 15 15 14 14 13 13 13 13 12 12 13 13 14 14
18 14 14 15 17 18 19 20 22 23 23 24 24 24 24 23 22 21 20 19 19 19 18 17 17 17 16 16 16 17 17 16 16 15 15 15 15 15 14 13 13 13 13 13 13 13 14 14 14
17 13 15 16 18 17 19 20 20 21 21 23 23 24 24 23 23 22 21 21 21 21 19 18 18 17 17 17 17 17 17 17 16 16 16 15 15 15 15 15 15 14 14 14 14 14 14 14 14
16 14 15 17 19 19 19 20 21 20 20 22 23 23 23 22 22 22 22 22 22 21 20 20 19 18 17 17 17 17 17 17 17 16 16 16 16 16 16 16 16 16 15 15 15 15 14 14 14
15 16 17 18 19 19 19 20 20 20 21 22 23 23 23 22 22 23 23 22 22 21 20 20 19 18 18 18 17 17 17 17 17 17 17 16 16 17 17 16 16 16 16 15 15 15 15 14 14
16 16 18 19 19 19 19 19 19 20 22 23 23 23 23 23 23 23 22 22 21 21 20 20 19 19 18 18 18 17 17 17 17 17 17 17 17 17 17 17 17 16 16 16 15 15 15 15 14
16 17 18 18 19 19 18 19 19 20 22 22 22 23 23 23 23 23 22 22 22 22 21 20 19 19 19 18 18 18 17 18 17 17 17 17 17 17 17 17 17 17 16 16 15 15 15 15 14
18 16 16 17 18 19 19 17 18 21 21 22 22 22 23 23 22 22 22 22 22 22 21 21 20 19 19 19 19 18 18 18 18 18 18 17 17 17 17 17 17 17 16 15 15 14 14 14 14
17 16 15 16 17 18 18 16 17 21 21 21 22 22 21 21 21 20 20 20 21 20 21 21 20 20 20 19 19 19 18 18 18 18 18 17 17 17 16 16 16 15 14 14 14 13 13 13 13
15 14 14 15 16 17 16 16 17 20 21 20 20 20 20 20 20 20 20 21 21 21 21 20 20 20 20 19 19 19 18 18 18 18 18 17 16 16 15 15 15 14 14 14 13 13 13 13 13
13 14 14 14 16 16 16 16 16 19 19 18 18 18 19 19 19 19 20 20 21 21 21 20 20 19 19 19 18 18 18 18 18 18 17 17 16 16 15 14 14 14 13 13 13 12 12 12 12
14 15 14 14 16 16 16 16 16 17 16 16 17 17 17 17 17 19 19 20 20 20 20 19 19 19 19 18 18 18 18 18 18 17 17 16 15 15 14 14 13 13 13 13 13 12 12 12 11
14 14 13 15 17 17 17 17 16 17 16 17 17 17 17 17 18 18 19 19 19 19 19 19 19 19 19 18 18 17 17 17 17 16 15 15 14 14 14 13 13 13 13 13 13 12 12 12 11
14 13 14 16 17 17 17 16 17 16 16 16 16 16 16 17 17 17 18 18 19 19 19 19 18 18 18 18 17 17 16 16 15 15 15 14 14 13 13 13 13 13 13 13 13 13 12 12 12
14 15 15 17 15 14 16 14 15 15 15 15 15 16 16 15 16 16 17 17 17 17 17 17 17 17 17 16 16 16 15 14 14 14 14 13 13 13 13 13 13 12 12 12 13 13 12 12 12
15 16 17 16 15 14 14 14 14 14 14 14 14 16 15 15 15 15 16 16 16 16 16 16 16 16 15 15 15 14 14 13 13 13 13 13 12 12 12 12 12 12 12 12 12 12 12 12 12
16 16 15 12 12 14 14 13 14 13 14 14 13 15 15 14 15 15 15 15 15 15 15 15 15 15 14 14 14 14 13 13 13 13 13 12 12 12 12 11 11 11 11 11 11 11 11 11 11
15 13 13 13 12 13 14 13 15 14 14 14 13 14 15 15 15 15 15 15 15 15 14 14 14 13 13 13 13 13 12 12 12 12 11 11 11 11 11 11 11 11 11 10 10 10 10 11 10
13 13 13 13 13 13 15 14 15 14 15 16 16 15 15 15 15 15 15 14 14 13 13 13 13 12 12 12 12 12 11 11 11 10 10 10 10 10 10 10 10 10 10 10 10 10 10 10 9
13 13 13 13 14 14 14 14 15 12 12 13 14 14 15 16 16 15 14 14 13 12 12 12 12 12 11 11 11 11 10 10 10 9 9 9 9 9 9 9 9 9 9 9 9 9 9 9 9
14 13 12 13 14 14 15 15 15 14 12 12 12 13 15 16 15 14 14 13 12 12 11 11 11 11 10 10 10 10 10 9 9 8 8 8 8 8 7 7 7 7 7 7 7 7 7 7 7
15 15 13 12 12 13 14 14 14 14 13 12 12 14 16 16 15 14 13 12 11 11 10 10 10 10 10 10 9 9 9 9 8 8 7 7 7 7 6 6 6 5 5 5 5 5 5 5 5
14 14 13 13 13 12 12 13 14 14 13 13 14 15 16 15 14 13 12 11 11 10 10 10 10 9 9 9 9 8 8 8 7 7 6 6 6 6 5 5 4 4 4 4 4 4 4 4 4
Wind_Speed
12 11 3 4 5 4 4 6 5 7 5 2 2 6 7 4 1 4 1 9 12 12 15 18 18 19 17 15 13 11 10 9 7 6 7 7 6 6 5 5 4 4 5 4 3 5 6 7 8
7 5 6 5 5 1 6 6 7 7 5 2 2 6 5 1 1 4 4 9 14 14 15 16 19 19 17 15 13 11 10 9 7 7 8 8 7 6 5 5 5 5 5 5 3 4 6 5 6
6 4 5 4 3 6 6 5 3 4 3 2 2 4 5 4 3 6 7 13 12 12 15 17 21 19 17 15 13 11 10 9 8 8 8 9 8 6 6 6 6 6 5 5 4 3 5 4 4
4 5 5 4 4 6 6 9 9 5 4 0 5 4 1 1 5 6 10 14 13 11 15 19 22 20 18 16 14 13 12 10 9 8 8 8 8 8 7 7 7 6 6 5 5 3 4 4 3
4 5 5 3 6 7 7 9 9 6 4 3 5 6 2 6 1 7 11 14 14 11 14 20 22 20 19 18 16 15 13 11 10 9 8 8 8 8 7 7 7 7 6 5 6 6 6 6 7
4 5 3 4 7 8 7 7 7 8 5 4 7 7 3 1 5 7 9 11 12 13 12 18 21 21 20 19 17 16 14 12 12 11 9 8 8 8 8 7 8 8 8 8 7 8 9 9 9
4 4 2 5 6 7 6 10 5 6 5 6 9 7 3 5 7 8 7 9 9 10 10 12 16 18 19 19 18 16 15 14 14 13 12 10 9 9 9 8 8 9 10 9 9 10 11 11 11
5 4 2 4 4 6 8 11 7 5 4 2 8 8 7 8 9 8 7 8 9 9 11 9 13 15 15 17 18 17 16 14 14 14 13 12 10 10 10 10 10 11 12 11 11 12 13 13 14
4 4 3 5 4 6 8 8 8 8 5 3 2 4 6 9 10 8 6 5 7 9 9 10 10 12 14 15 16 17 16 15 14 15 15 13 12 11 12 12 13 14 14 14 14 14 14 15 15
4 4 8 6 4 6 8 7 8 9 8 3 3 4 2 10 12 11 10 10 12 12 11 9 12 11 12 13 13 14 14 14 14 13 14 13 13 13 13 14 16 16 17 17 16 16 15 15 12
7 8 7 7 8 6 7 8 5 5 7 5 5 6 7 8 10 12 12 10 13 11 13 13 12 10 10 8 9 10 11 12 13 15 15 14 13 12 12 12 14 16 17 14 14 13 12 11 10
6 9 8 8 7 6 7 6 7 5 9 9 9 7 11 11 13 15 16 13 9 9 11 13 14 12 10 9 7 8 7 8 8 13 16 13 7 7 8 8 11 12 12 10 10 8 10 10 12
7 7 9 12 13 9 9 9 8 9 14 11 6 8 14 14 14 13 12 10 9 10 11 11 13 14 12 10 7 7 7 8 11 13 16 16 8 8 6 6 8 10 11 8 6 6 7 7 8
7 7 7 8 9 6 9 10 6 10 11 9 5 10 14 15 16 13 12 13 13 14 14 13 13 14 13 12 11 10 9 10 11 13 16 18 14 8 9 9 9 9 11 11 9 8 9 10 9
5 6 9 8 8 6 5 9 10 13 10 10 9 9 11 12 10 12 13 14 14 14 13 14 15 13 14 14 14 11 9 10 9 11 16 18 17 12 9 9 10 8 9 9 8 7 6 8 9
1 2 5 8 6 7 6 11 15 10 7 8 6 3 3 4 3 4 6 7 8 9 10 13 13 14 15 14 13 10 8 9 9 11 12 16 17 14 7 9 9 6 6 5 7 7 7 9 10
0 3 7 9 6 7 8 10 11 5 4 5 4 5 7 8 9 8 8 7 5 4 7 9 11 13 15 14 11 10 9 11 7 8 9 11 13 13 8 10 9 6 6 8 9 9 7 10 11
7 6 6 8 6 7 9 11 11 6 2 4 5 6 7 8 8 7 9 9 9 8 6 3 5 8 9 8 6 5 6 8 6 7 8 11 11 12 9 10 10 8 7 9 8 10 9 9 8
6 4 7 11 9 8 10 11 10 2 6 7 5 6 6 6 5 8 9 9 9 10 10 9 7 3 3 4 4 5 7 6 6 7 7 8 9 10 9 11 10 9 11 13 12 11 11 11 6
7 8 10 10 5 5 6 7 5 4 5 7 7 6 5 5 8 10 10 10 10 10 10 10 10 8 3 2 3 2 2 3 4 4 5 7 8 8 10 12 12 11 12 13 13 11 10 10 7
9 9 10 7 4 3 1 4 2 1 2 4 4 5 6 7 8 9 10 10 11 12 11 10 11 11 10 6 3 4 4 3 3 3 4 6 6 7 10 12 13 12 12 13 14 13 14 15 11
9 10 10 4 1 3 1 4 6 5 4 4 4 5 6 7 7 7 8 9 10 10 9 11 11 12 12 10 9 8 6 4 4 4 4 7 7 7 7 9 10 11 10 12 14 13 14 15 15
9 6 5 2 2 2 1 3 7 5 7 8 7 7 7 7 7 6 7 7 8 8 9 10 11 13 12 12 11 10 8 5 4 5 8 8 8 8 9 9 8 9 8 10 12 13 14 14 15
6 5 6 5 4 3 7 7 7 8 11 10 9 8 8 7 7 5 5 6 8 8 9 10 11 12 11 12 11 11 10 9 9 9 9 8 6 7 11 11 10 9 9 10 11 11 13 14 15
6 6 2 2 1 7 4 6 9 11 10 14 13 11 9 9 7 6 6 6 7 8 8 8 10 11 10 11 11 10 10 9 9 8 7 7 6 6 10 10 10 10 10 10 10 10 11 11 13
7 9 7 7 6 5 2 7 8 7 7 10 11 11 10 9 8 7 6 5 4 7 7 8 9 9 9 9 9 9 8 7 6 7 7 7 7 7 10 11 11 11 12 12 11 9 10 10 11
8 7 7 5 3 4 6 7 7 7 10 11 11 10 10 9 9 8 7 5 4 6 6 7 8 9 9 9 9 9 9 8 8 8 8 7 8 9 12 12 12 12 12 12 11 9 11 11 10
7 8 6 4 4 5 5 5 4 3 9 10 12 11 10 9 8 8 6 4 4 5 6 7 8 8 8 9 8 7 8 8 8 8 9 10 10 10 12 13 13 14 14 14 13 12 12 12 10
5 5 5 4 4 4 3 6 5 9 11 13 12 11 10 10 9 7 5 4 6 7 7 8 8 8 8 8 7 7 7 7 8 8 8 9 9 10 11 12 13 13 14 14 14 14 13 13 13
7 7 7 4 4 4 3 7 7 3 9 10 10 10 9 8 7 6 5 6 7 7 7 7 7 7 6 6 7 7 7 8 8 9 9 10 10 10 11 11 12 13 13 13 14 14 14 14 14
Wind_Direction
323 343 38 54 55 52 251 254 250 294 287 238 121 106 119 125 206 256 59 140 144 147 163 168 169 163 161 162 165 169 166 163 166 168 158 155 145 136 133 133 137 135 130 135 141 149 141 134 135
333 7 44 58 94 166 261 254 272 251 248 266 86 108 102 121 176 139 125 147 146 151 162 166 167 164 164 165 168 170 171 171 174 179 175 163 154 147 145 149 159 155 151 154 159 154 147 147 145
349 51 69 70 140 195 234 249 288 271 249 210 84 72 140 174 191 184 168 150 144 152 161 165 166 168 168 169 171 172 174 175 183 193 187 173 165 164 164 166 167 163 163 167 170 160 159 166 162
42 35 49 69 251 238 240 273 291 280 288 145 115 91 91 6 200 193 152 151 149 157 161 166 169 172 172 172 174 174 179 185 191 188 183 182 180 178 177 177 177 176 176 178 181 182 179 183 208
59 68 41 335 270 262 257 267 270 267 260 220 138 150 228 336 140 148 148 158 157 162 166 171 174 176 177 177 179 181 185 191 193 184 187 192 190 188 190 192 192 190 191 195 200 205 208 208 221
49 66 69 282 276 284 283 278 269 253 246 197 144 161 224 209 146 160 156 161 164 165 171 176 179 179 180 181 184 187 191 197 197 195 197 201 204 207 205 209 210 208 206 207 212 217 221 221 223
112 106 191 249 276 292 296 315 279 248 240 196 152 153 247 212 204 180 160 149 163 165 166 174 179 181 183 185 187 191 197 205 207 203 207 214 216 217 216 219 220 219 218 219 223 227 228 228 229
138 111 237 260 261 279 308 328 340 330 272 175 133 156 220 208 190 173 153 139 163 168 172 173 177 181 185 189 192 194 199 207 210 207 207 212 212 216 222 223 224 222 221 225 230 234 235 232 232
106 95 232 242 244 281 310 326 321 314 318 16 60 192 228 156 150 155 163 151 176 183 184 180 181 185 187 192 198 198 201 206 211 210 208 212 211 215 225 225 224 222 221 226 232 236 237 236 234
117 172 228 225 231 279 299 309 315 338 332 338 347 349 76 143 158 173 188 193 192 196 195 191 191 192 189 196 200 200 203 209 212 208 208 213 215 219 226 228 226 226 226 228 234 238 238 238 234
177 197 236 251 250 262 285 295 308 330 300 277 263 227 170 173 180 191 204 207 201 195 196 198 198 198 192 195 193 196 202 209 211 207 208 214 219 226 232 233 233 230 230 231 238 244 240 236 231
200 233 233 255 260 265 269 275 287 251 249 264 273 210 182 190 199 204 210 216 209 203 201 199 201 201 199 196 195 194 200 208 211 212 213 215 222 228 231 231 225 220 223 225 230 235 239 239 239
233 256 262 268 277 270 267 257 256 261 265 279 269 182 193 201 209 216 221 227 218 217 216 202 194 200 199 197 199 198 203 209 213 216 218 218 222 230 228 227 223 220 220 221 222 228 233 236 240
227 239 266 273 274 268 259 267 266 263 275 302 262 209 211 212 214 218 224 227 223 222 221 212 202 196 192 196 200 202 203 209 212 218 222 220 224 226 227 226 224 223 221 222 222 223 229 233 237
235 266 295 274 258 252 259 284 259 259 291 280 260 241 234 233 231 229 233 235 232 229 224 216 212 201 197 199 201 202 203 206 212 220 223 224 225 227 228 231 232 229 223 224 230 234 236 240 239
236 257 278 274 248 234 190 260 268 280 301 278 277 308 315 302 311 307 305 275 262 248 236 225 217 208 207 207 204 205 204 207 216 219 222 227 228 225 222 234 242 235 224 220 228 229 233 240 240
58 238 254 284 253 211 185 244 269 310 330 325 1 61 65 52 38 21 10 360 341 286 248 233 223 215 212 212 208 207 206 213 217 216 222 227 228 225 220 235 240 223 221 227 234 232 226 241 243
204 219 252 261 274 183 197 242 275 326 78 87 76 79 67 57 32 13 11 8 9 13 15 346 246 233 221 215 213 215 221 226 221 219 226 228 228 225 223 239 242 226 230 239 235 242 237 243 248
188 209 276 269 249 193 209 239 272 292 116 119 105 90 79 60 26 20 15 9 16 19 21 20 19 334 202 183 197 211 227 230 231 233 235 236 235 231 228 241 243 232 237 243 235 235 240 247 232
241 275 288 291 282 190 220 259 273 197 164 151 136 117 87 55 29 19 14 16 23 24 21 24 23 18 17 194 181 182 211 240 246 259 259 247 241 236 238 240 246 241 242 245 242 232 241 250 220
235 234 252 263 330 353 245 303 274 327 135 121 111 103 83 64 45 23 16 18 23 27 22 31 29 30 27 33 76 68 54 22 8 333 303 291 279 268 259 256 254 251 243 248 247 237 238 252 246
236 229 219 208 136 276 200 260 257 218 199 163 140 110 91 72 57 40 27 24 24 19 21 32 35 38 34 39 54 59 55 30 353 337 335 330 324 314 302 293 281 273 262 255 255 248 243 246 254
214 208 194 146 138 316 266 215 270 206 212 206 191 159 124 102 86 64 44 37 29 24 28 32 39 40 35 41 49 56 52 35 11 9 9 3 354 355 354 345 335 315 296 279 272 267 258 252 251
166 78 54 45 68 282 223 188 265 205 208 196 195 178 148 133 117 96 65 50 38 31 33 34 41 38 31 35 39 44 43 33 28 18 12 4 355 355 1 355 352 344 336 322 308 294 282 273 267
118 106 69 344 320 250 227 192 247 225 200 179 179 175 163 157 144 128 101 71 53 44 39 40 47 41 32 36 37 36 38 38 34 20 10 6 356 349 350 350 346 345 339 333 328 319 307 295 287
164 151 170 194 217 265 241 226 254 282 184 148 148 156 163 167 162 155 146 118 78 59 51 50 53 46 36 36 35 34 35 35 28 19 11 3 352 339 341 342 340 338 336 335 330 323 315 309 302
149 191 188 161 232 255 264 275 312 41 117 131 144 158 175 180 175 167 157 136 102 69 58 60 62 50 37 33 32 31 27 27 20 13 8 360 351 346 343 339 337 335 333 331 329 323 318 314 308
161 162 131 164 199 240 281 273 262 176 158 155 167 179 189 188 181 173 163 147 100 77 69 64 63 54 39 34 32 31 23 20 14 10 3 353 345 341 338 338 336 334 333 331 330 325 321 322 320
170 171 156 163 182 178 251 273 239 209 187 178 186 190 192 189 182 176 167 127 93 80 70 65 57 48 36 27 24 23 15 12 9 3 352 343 337 336 336 336 334 333 331 331 328 324 327 327 324
182 181 153 168 217 175 197 268 292 240 188 179 188 199 201 185 170 154 129 103 93 85 75 65 51 41 28 19 20 18 15 13 8 359 350 345 342 339 337 336 333 331 329 327 322 322 329 323 321
Height
1534 1531 1529 1529 1531 1540 1538 1529 1519 1513 1509 1504 1503 1503 1504 1506 1509 1513 1507 1504 1505 1507 1507 1508 1510 1512 1513 1514 1515 1514 1514 1513 1514 1515 1515 1515 1514 1513 1512 1512 1512 1512 1511 1511 1511 1512 1512 1512 1512
1533 1531 1530 1529 1537 1546 1538 1524 1517 1511 1507 1505 1504 1504 1504 1505 1506 1506 1504 1505 1506 1507 1507 1508 1510 1511 1512 1513 1514 1513 1513 1513 1513 1514 1515 1514 1513 1512 1511 1511 1510 1510 1509 1509 1510 1510 1510 1511 1511
1532 1530 1530 1532 1538 1541 1531 1517 1512 1507 1506 1505 1505 1505 1504 1505 1506 1505 1505 1505 1505 1506 1507 1508 1509 1510 1511 1512 1512 1513 1512 1512 1512 1514 1514 1514 1513 1512 1511 1510 1509 1509 1509 1508 1509 1509 1509 1510 1510
1532 1531 1531 1536 1535 1529 1523 1515 1511 1508 1505 1504 1504 1505 1505 1506 1506 1505 1504 1504 1504 1506 1506 1507 1509 1510 1510 1511 1511 1512 1511 1511 1512 1513 1513 1513 1512 1511 1510 1509 1509 1508 1508 1508 1508 1508 1508 1508 1509
1531 1530 1536 1540 1532 1523 1516 1512 1509 1506 1504 1504 1504 1504 1504 1505 1505 1505 1504 1503 1504 1505 1506 1507 1508 1509 1509 1509 1510 1511 1510 1510 1511 1512 1512 1512 1511 1511 1510 1509 1509 1509 1509 1508 1508 1507 1507 1507 1507
1531 1531 1543 1543 1532 1521 1514 1510 1507 1504 1503 1503 1503 1504 1503 1504 1504 1505 1504 1504 1504 1505 1505 1506 1507 1507 1507 1508 1509 1509 1509 1509 1510 1510 1510 1511 1510 1510 1509 1509 1509 1509 1508 1508 1507 1506 1506 1506 1506
1532 1535 1540 1536 1532 1524 1514 1509 1505 1502 1502 1501 1501 1503 1502 1502 1503 1504 1504 1504 1504 1504 1504 1505 1505 1506 1506 1507 1507 1508 1508 1508 1508 1509 1509 1509 1509 1509 1508 1508 1508 1508 1507 1507 1506 1505 1505 1504 1505
1530 1533 1535 1535 1530 1523 1514 1510 1506 1504 1503 1501 1500 1501 1501 1501 1501 1503 1504 1504 1504 1503 1504 1504 1504 1505 1505 1505 1506 1506 1507 1507 1507 1508 1508 1508 1508 1507 1507 1507 1506 1506 1506 1505 1504 1504 1503 1503 1503
1529 1535 1538 1532 1526 1520 1513 1510 1507 1505 1504 1501 1499 1500 1500 1500 1500 1501 1502 1502 1502 1502 1502 1503 1503 1503 1503 1504 1505 1505 1505 1506 1506 1507 1507 1507 1507 1506 1506 1505 1505 1505 1504 1504 1502 1502 1501 1501 1501
1528 1535 1530 1522 1519 1518 1513 1511 1509 1505 1503 1500 1499 1499 1499 1498 1498 1499 1499 1499 1499 1500 1501 1501 1501 1502 1502 1502 1503 1504 1504 1505 1505 1505 1505 1505 1505 1505 1504 1504 1503 1503 1502 1501 1500 1499 1499 1498 1498
1524 1526 1520 1517 1516 1515 1513 1510 1508 1507 1504 1500 1500 1498 1497 1497 1497 1497 1497 1497 1497 1498 1499 1499 1499 1500 1500 1500 1501 1502 1503 1503 1503 1504 1504 1503 1503 1503 1503 1502 1501 1500 1499 1499 1498 1497 1496 1496 1495
1521 1518 1516 1513 1513 1513 1511 1508 1505 1503 1502 1499 1498 1497 1496 1495 1495 1495 1495 1495 1496 1496 1496 1497 1498 1498 1498 1499 1500 1501 1501 1501 1502 1502 1502 1502 1501 1501 1501 1500 1499 1498 1497 1496 1496 1495 1494 1493 1493
1518 1515 1513 1511 1510 1509 1508 1505 1502 1498 1497 1496 1495 1494 1493 1492 1492 1493 1493 1494 1494 1494 1494 1494 1495 1496 1496 1497 1497 1498 1499 1499 1500 1500 1500 1500 1500 1499 1498 1498 1497 1496 1495 1494 1494 1493 1491 1490 1490
1513 1512 1510 1508 1506 1505 1504 1500 1499 1493 1494 1493 1492 1491 1490 1490 1490 1490 1491 1490 1491 1491 1492 1493 1492 1492 1493 1493 1493 1494 1496 1497 1498 1498 1498 1498 1497 1496 1496 1495 1494 1493 1492 1492 1491 1490 1488 1487 1486
1511 1511 1509 1505 1503 1502 1502 1501 1494 1490 1490 1488 1488 1488 1488 1488 1488 1488 1488 1488 1489 1489 1490 1490 1490 1490 1490 1490 1491 1491 1493 1494 1495 1495 1496 1495 1494 1493 1492 1491 1490 1490 1490 1489 1488 1487 1485 1483 1482
1509 1512 1515 1505 1500 1498 1505 1505 1489 1488 1487 1484 1485 1486 1486 1486 1486 1486 1486 1486 1486 1487 1487 1487 1488 1487 1487 1488 1488 1489 1489 1491 1491 1492 1492 1492 1491 1491 1490 1489 1488 1488 1487 1486 1484 1482 1480 1478 1477
1513 1519 1517 1508 1497 1497 1500 1500 1485 1485 1484 1484 1484 1484 1484 1484 1484 1483 1483 1483 1483 1482 1482 1483 1483 1484 1484 1485 1485 1486 1487 1488 1488 1489 1489 1489 1488 1488 1487 1485 1484 1484 1482 1480 1478 1476 1474 1472 1470
1518 1518 1515 1510 1497 1496 1498 1495 1485 1484 1483 1483 1483 1484 1484 1483 1483 1482 1481 1481 1480 1479 1478 1477 1478 1479 1480 1482 1483 1483 1484 1485 1485 1485 1485 1485 1485 1484 1482 1480 1479 1478 1476 1474 1472 1471 1469 1467 1465
1509 1510 1513 1505 1493 1494 1495 1492 1486 1484 1483 1483 1484 1484 1484 1484 1483 1482 1480 1479 1478 1477 1476 1475 1474 1474 1475 1477 1478 1480 1480 1481 1482 1482 1482 1481 1481 1479 1477 1475 1473 1472 1469 1467 1465 1463 1461 1459 1458
1508 1512 1511 1500 1489 1490 1491 1490 1485 1484 1483 1483 1484 1484 1484 1484 1483 1482 1481 1479 1478 1476 1475 1474 1473 1473 1473 1473 1475 1476 1478 1479 1479 1480 1479 1478 1477 1474 1472 1469 1467 1465 1462 1459 1457 1455 1453 1451 1452
1506 1510 1508 1501 1493 1490 1492 1494 1488 1485 1484 1484 1484 1484 1484 1484 1483 1482 1482 1480 1479 1477 1476 1475 1474 1473 1472 1472 1472 1473 1474 1475 1476 1476 1475 1473 1471 1469 1467 1464 1461 1458 1456 1453 1451 1449 1447 1444 1443
1506 1498 1499 1497 1501 1504 1498 1508 1493 1488 1485 1484 1484 1484 1485 1485 1485 1484 1483 1482 1480 1479 1478 1477 1476 1474 1473 1472 1472 1472 1472 1473 1473 1471 1470 1468 1466 1464 1461 1458 1455 1452 1449 1446 1444 1443 1440 1437 1433
1496 1491 1494 1495 1500 1504 1502 1506 1497 1488 1488 1485 1484 1484 1485 1486 1486 1485 1485 1484 1483 1482 1481 1480 1479 1477 1475 1474 1473 1472 1472 1471 1470 1469 1467 1465 1463 1460 1457 1453 1450 1447 1444 1441 1438 1436 1433 1430 1426
1488 1493 1498 1504 1507 1511 1501 1507 1495 1487 1480 1480 1481 1482 1484 1486 1486 1486 1486 1485 1484 1484 1483 1482 1481 1479 1478 1476 1475 1473 1472 1471 1469 1468 1466 1463 1461 1457 1454 1451 1447 1443 1440 1436 1433 1430 1427 1423 1420
1489 1504 1515 1514 1518 1511 1495 1499 1487 1470 1465 1469 1475 1479 1483 1485 1486 1486 1486 1486 1485 1485 1484 1483 1482 1480 1479 1478 1476 1474 1473 1471 1469 1467 1465 1461 1458 1454 1451 1447 1443 1440 1436 1432 1428 1424 1421 1417 1413
1489 1497 1511 1515 1514 1505 1490 1493 1474 1465 1462 1466 1472 1477 1481 1483 1484 1485 1486 1486 1485 1485 1484 1483 1482 1481 1480 1478 1477 1475 1473 1471 1469 1466 1463 1460 1456 1452 1448 1444 1440 1436 1431 1427 1423 1418 1414 1410 1406
1490 1493 1492 1500 1499 1501 1494 1482 1468 1465 1465 1468 1473 1476 1478 1481 1483 1484 1485 1485 1485 1485 1484 1484 1483 1482 1480 1478 1476 1474 1472 1470 1468 1465 1462 1458 1454 1449 1445 1440 1436 1431 1426 1421 1416 1411 1407 1402 1398
1478 1483 1495 1500 1503 1504 1492 1483 1478 1472 1471 1471 1472 1474 1476 1479 1481 1483 1484 1485 1485 1485 1484 1484 1483 1481 1480 1477 1475 1473 1471 1468 1465 1462 1458 1454 1450 1445 1440 1435 1430 1425 1420 1415 1410 1405 1400 1395 1390
1480 1482 1486 1494 1498 1502 1500 1489 1468 1466 1466 1467 1469 1472 1475 1477 1479 1481 1483 1484 1484 1484 1484 1483 1482 1480 1478 1476 1473 1471 1468 1465 1462 1458 1454 1449 1445 1440 1435 1430 1425 1420 1415 1410 1405 1400 1395 1389 1384
1474 1476 1484 1493 1494 1498 1502 1491 1461 1461 1462 1465 1468 1471 1474 1476 1479 1481 1483 1483 1483 1483 1482 1481 1480 1478 1476 1473 1471 1468 1464 1461 1457 1453 1449 1444 1440 1435 1430 1425 1420 1415 1410 1405 1400 1395 1390 1384 1378